Regional Weather Roundup
Issued by NWS Raleigh/Durham, NC

Home | Current Version | Previous Version | Text Only | Print | Product List | Glossary On
Versions: 1 2 3 4 5 6 7 8 9 10 11 12 13 14 15 16 17 18 19 20 21 22 23 24 25 26 27 28 29 30 31 32 33 34 35 36 37 38 39 40 41 42 43 44 45 46 47 48 49 50
000
ASUS42 KRAH 031310
RWRRAH
NORTH CAROLINA WEATHER ROUNDUP
NATIONAL WEATHER SERVICE RALEIGH NC
800 AM EST TUE MAR 03 2015

NOTE: "FAIR" INDICATES FEW OR NO CLOUDS BELOW 12,000 FEET WITH NO
SIGNIFICANT WEATHER AND/OR OBSTRUCTIONS TO VISIBILITY.

NCZ001-053-055-056-065-067-031400-
WESTERN NORTH CAROLINA

CITY           SKY/WX    TMP DP  RH WIND       PRES   REMARKS
ASHEVILLE      CLOUDY    41  33  73 S8        30.28R
JEFFERSON      CLOUDY    34  19  55 S5        30.24S WCI  30
MORGANTON      LGT RAIN  40  38  94 CALM      30.36R
HICKORY        NOT AVBL
RUTHERFORDTON  CLOUDY    44  29  54 N6        30.31F
MOUNT AIRY     CLOUDY    38  33  81 E6        30.36R WCI  34
BOONE          CLOUDY    34  32  94 CALM      30.26S
$$

NCZ021-022-025-041-071-084-088-031400-
CENTRAL NORTH CAROLINA

CITY           SKY/WX    TMP DP  RH WIND       PRES   REMARKS
CHARLOTTE      CLOUDY    43  33  68 NE10      30.33R
GREENSBORO     CLOUDY    39  29  67 E8        30.34S WCI  33
WINSTON-SALEM  CLOUDY    38  26  62 NE3       30.35S
RALEIGH-DURHAM CLOUDY    37  18  46 E13G20    30.39R WCI  29
FORT BRAGG     CLOUDY    40  23  50 E7        30.36F WCI  35
FAYETTEVILLE   CLOUDY    40  24  53 E12       30.36F WCI  33
BURLINGTON     CLOUDY    39  24  55 E5        30.37R
LAURINBURG     CLOUDY    40  30  67 E9        30.34F WCI  34
$$

NCZ011-015-027-028-043-044-047-080-103-031400-
NORTHEASTERN NORTH CAROLINA

CITY           SKY/WX    TMP DP  RH WIND       PRES   REMARKS
ROCKY MT-WILSO CLOUDY    36  22  56 NE8       30.41S WCI  30
GREENVILLE     CLOUDY    36  27  69 NE8       30.41F WCI  29
WASHINGTON     CLOUDY    35  24  64 NE5       30.42R WCI  30
ELIZABETH CITY MOSUNNY   36  26  67 N3        30.43R
MANTEO         PTSUNNY   39  30  70 N7        30.42R WCI  34
CAPE HATTERAS  PTSUNNY   40  34  79 VRB7G16   30.38S
$$

NCZ078-087-090-091-093-098-101-031400-
SOUTHEASTERN NORTH CAROLINA

CITY           SKY/WX    TMP DP  RH WIND       PRES   REMARKS
LUMBERTON      LGT RAIN  41  27  57 E9        30.34S
GOLDSBORO      CLOUDY    38  29  71 NE10      30.39R WCI  31
KINSTON        CLOUDY    37  21  52 NE9       30.41R WCI  31
KENANSVILLE    CLOUDY    39  23  53 NE3       30.40R
NEW BERN       CLOUDY    39  24  55 NE9       30.41R WCI  33
CHERRY POINT   CLOUDY    40  25  55 NE10      30.40R WCI  33
BEAUFORT       CLOUDY    40  29  64 NE7G20    30.38R
JACKSONVILLE   CLOUDY    41  24  51 NE9       30.38R
WILMINGTON     CLOUDY    42  28  57 NE6       30.36R
$$



USA.gov is the U.S. government's official web portal to all federal, state and local government web resources and services.